Date,TemperatureHighF,TemperatureAvgF,TemperatureLowF,DewpointHighF,DewpointAvgF,DewpointLowF,HumidityHigh,HumidityAvg,HumidityLow,PressureMaxIn,PressureMinIn,WindSpeedMaxMPH,WindSpeedAvgMPH,GustSpeedMaxMPH,PrecipitationSumIn
2014-5-13,51.0,46.8,44.0,40.0,37.6,36.0,81,71,60,0.00,40.00,5,4,8,0.00
2014-5-14,59.0,47.8,36.0,40.0,31.2,24.0,96,59,27,0.00,40.00,11,5,22,0.00
2014-5-15,53.0,47.2,37.0,35.0,29.7,24.0,67,51,37,0.00,40.00,12,8,22,0.00
2014-5-16,52.0,41.7,29.0,35.0,27.3,20.0,96,62,33,0.00,40.00,9,4,17,0.00
2014-5-17,61.0,46.5,30.0,38.0,26.2,-99.9,98,56,21,0.00,40.00,13,4,21,0.00
2014-5-18,71.0,57.0,38.0,43.0,33.4,27.0,94,50,21,0.00,40.00,11,5,21,0.00
2014-5-19,62.0,49.7,45.0,51.0,39.3,-99.9,97,76,46,0.00,40.00,15,7,24,0.00
2014-5-20,75.0,62.6,51.0,61.0,52.4,-99.9,96,73,47,0.00,40.00,7,3,15,0.00
2014-5-21,70.0,62.1,49.0,58.0,48.3,43.0,97,65,38,0.00,40.00,12,6,25,0.00
2014-5-22,69.0,57.3,45.0,48.0,41.5,-99.9,96,62,35,0.00,40.00,9,5,18,0.00
2014-5-23,75.0,58.9,40.0,51.0,42.2,38.0,97,61,28,0.00,40.00,8,3,14,0.00
2014-5-24,78.0,61.6,45.0,57.0,44.0,-99.9,97,62,25,0.00,40.00,9,3,14,0.00
2014-5-25,82.0,65.9,44.0,58.0,46.5,40.0,97,59,24,0.00,40.00,11,4,19,0.00
2014-5-26,84.0,73.5,63.0,65.0,62.3,58.0,95,70,43,0.00,40.00,10,5,19,0.00
2014-5-27,76.0,69.1,65.0,68.0,64.8,62.0,96,87,67,0.00,40.00,10,5,16,0.00
2014-5-28,76.0,64.8,55.0,62.0,47.0,37.0,91,56,27,0.00,40.00,10,5,14,0.00
2014-5-29,83.0,65.5,47.0,53.0,45.9,39.0,97,59,22,0.00,40.00,7,3,14,0.00
2014-5-30,86.0,67.6,51.0,61.0,48.7,43.0,97,60,23,0.00,40.00,6,2,13,0.00
2014-5-31,86.0,70.4,52.0,55.0,48.6,-99.9,96,54,25,0.00,40.00,7,4,17,0.00
2014-6-1,81.0,69.8,65.0,71.0,66.0,53.0,96,89,48,0.00,40.00,13,6,23,0.00
2014-6-2,78.0,69.9,66.0,67.0,63.6,54.0,96,83,52,0.00,40.00,13,7,21,0.00
2014-6-3,75.0,65.3,57.0,58.0,50.6,47.0,94,62,38,0.00,40.00,16,9,30,0.00
2014-6-4,78.0,65.7,55.0,58.0,52.3,46.0,96,68,33,0.00,40.00,10,3,17,0.00
2014-6-5,79.0,66.5,54.0,62.0,51.9,47.0,97,66,33,0.00,40.00,11,4,16,0.00
2014-6-6,80.0,68.9,58.0,61.0,57.0,53.0,95,70,40,0.00,40.00,7,2,13,0.00
2014-6-7,79.0,62.5,56.0,65.0,56.6,-99.9,96,85,53,0.00,40.00,12,4,23,0.00
2014-6-8,75.0,63.0,53.0,54.0,46.6,38.0,95,62,26,0.00,40.00,9,5,16,0.00
2014-6-9,75.0,64.7,56.0,54.0,44.4,35.0,92,54,24,0.00,40.00,7,3,12,0.00
2014-6-10,75.0,62.4,49.0,54.0,47.4,37.0,96,65,26,0.00,40.00,9,4,14,0.00
2014-6-11,80.0,68.0,55.0,56.0,49.8,45.0,90,58,30,0.00,40.00,10,4,17,0.00
2014-6-12,68.0,62.1,57.0,60.0,51.0,39.0,96,70,44,0.00,40.00,18,8,31,0.00
2014-6-13,72.0,59.9,47.0,49.0,38.8,35.0,95,50,27,0.00,40.00,12,6,23,0.00
2014-6-14,76.0,60.8,46.0,54.0,44.0,-99.9,97,63,30,0.00,40.00,15,5,30,0.00
2014-6-15,79.0,67.9,58.0,69.0,55.2,48.0,94,66,42,0.00,40.00,15,8,29,0.00
2014-6-16,84.0,69.1,51.0,64.0,55.1,48.0,97,68,29,0.00,40.00,13,4,26,0.00
2014-6-17,85.0,72.9,62.0,68.0,62.0,59.0,96,72,42,0.00,40.00,13,4,26,0.00
2014-6-18,77.0,69.3,64.0,69.0,65.0,63.0,97,87,66,0.00,40.00,12,7,20,0.00
2014-6-19,74.0,67.1,63.0,65.0,63.3,62.0,95,88,71,0.00,40.00,12,7,22,0.00
2014-6-20,82.0,71.9,63.0,69.0,64.5,62.0,97,80,51,0.00,40.00,6,3,14,0.00
2014-6-21,82.0,69.4,62.0,71.0,60.9,-99.9,96,80,45,0.00,40.00,7,4,14,0.00
2014-6-22,79.0,70.0,61.0,68.0,63.7,59.0,96,82,54,0.00,40.00,7,3,14,0.00
2014-6-23,81.0,71.3,63.0,69.0,64.4,62.0,96,81,54,0.00,40.00,6,2,12,0.00
2014-6-24,83.0,71.9,65.0,66.0,61.9,55.0,95,75,39,0.00,40.00,11,4,16,0.00
2014-6-25,78.0,67.9,64.0,64.0,61.8,57.0,96,83,49,0.00,40.00,6,4,12,0.00
2014-6-26,78.0,68.2,61.0,64.0,60.7,59.0,94,79,52,0.00,40.00,7,4,15,0.00
2014-6-27,84.0,73.6,62.0,71.0,65.6,61.0,95,78,57,0.00,40.00,9,4,21,0.00
2014-6-28,84.0,74.8,69.0,72.0,65.2,-99.9,95,78,62,0.00,40.00,13,6,21,0.00
2014-6-29,83.0,72.5,66.0,69.0,64.1,55.0,96,78,41,0.00,40.00,15,-19,27,0.00
2014-6-30,80.0,68.9,65.0,72.0,66.5,63.0,96,93,73,0.00,40.00,13,5,37,0.00
2014-7-1,66.0,62.7,61.0,62.0,60.6,60.0,96,92,82,0.00,40.00,9,7,19,0.00
2014-7-2,72.0,63.5,53.0,51.0,49.6,45.0,90,63,41,0.00,40.00,10,6,17,0.00
2014-7-3,76.0,60.6,45.0,56.0,46.8,42.0,97,67,32,0.00,40.00,7,3,15,0.00
2014-7-4,79.0,64.2,47.0,64.0,47.9,38.0,97,66,24,0.00,40.00,8,2,16,0.00
2014-7-5,79.0,67.6,57.0,63.0,57.2,53.0,94,72,49,0.00,40.00,13,7,24,0.00
2014-7-6,79.0,70.1,64.0,74.0,67.4,62.0,96,91,70,0.00,40.00,11,6,20,0.00
2014-7-7,81.0,69.7,60.0,69.0,61.5,56.0,96,79,43,0.00,40.00,16,5,39,0.00
2014-7-8,73.0,64.9,61.0,64.0,59.3,52.0,96,84,48,0.00,40.00,12,6,26,0.00
2014-7-9,73.0,62.2,54.0,58.0,52.6,44.0,96,76,40,0.00,40.00,9,4,21,0.00
2014-7-10,79.0,65.5,49.0,65.0,55.2,49.0,97,73,44,0.00,40.00,9,3,17,0.00
2014-7-11,76.0,68.5,61.0,63.0,60.1,55.0,96,77,53,0.00,40.00,14,5,24,0.00
2014-7-12,78.0,67.7,63.0,72.0,64.9,62.0,96,88,77,0.00,40.00,9,3,13,0.00
2014-7-13,75.0,66.3,55.0,65.0,53.0,41.0,97,70,30,0.00,40.00,9,5,19,0.00
2014-7-14,67.0,56.8,48.0,57.0,50.4,43.0,97,82,47,0.00,40.00,10,4,21,0.00
2014-7-15,68.0,58.9,51.0,55.0,48.9,43.0,95,73,41,0.00,40.00,11,5,20,0.00
2014-7-16,73.0,60.2,45.0,59.0,43.8,37.0,97,64,29,0.00,40.00,9,3,14,0.00
2014-7-17,76.0,62.6,45.0,59.0,48.5,44.0,97,67,33,0.00,40.00,7,2,12,0.00
2014-7-18,80.0,65.9,51.0,62.0,54.1,50.0,96,71,38,0.00,40.00,13,4,19,0.00
2014-7-19,79.0,66.2,58.0,62.0,58.2,56.0,95,78,48,0.00,40.00,12,4,21,0.00
2014-7-20,81.0,72.2,61.0,64.0,62.1,59.0,96,73,51,0.00,40.00,13,6,20,0.00
2014-7-21,87.0,76.7,65.0,70.0,67.3,63.0,95,75,55,0.00,40.00,12,5,19,0.00
2014-7-22,85.0,77.8,66.0,76.0,68.1,59.0,91,74,52,0.00,40.00,12,7,22,0.00
2014-7-23,80.0,68.9,53.0,61.0,55.1,52.0,97,66,41,0.00,40.00,8,4,14,0.00
2014-7-24,79.0,66.7,53.0,59.0,52.9,48.0,96,67,36,0.00,40.00,6,2,11,0.00
2014-7-25,70.0,64.4,58.0,64.0,61.5,57.0,96,91,81,0.00,40.00,9,4,17,0.00
2014-7-26,82.0,68.9,63.0,71.0,64.1,62.0,96,83,58,0.00,40.00,7,4,14,0.00
2014-7-27,73.0,65.5,59.0,68.0,60.7,55.0,96,85,54,0.00,40.00,12,6,22,0.00
2014-7-28,73.0,63.5,51.0,56.0,51.3,47.0,96,68,41,0.00,40.00,9,5,21,0.00
2014-7-29,77.0,64.6,54.0,61.0,55.0,50.0,96,75,40,0.00,40.00,10,5,22,0.00
2014-7-30,75.0,64.6,51.0,61.0,53.4,47.0,97,73,37,0.00,40.00,6,3,11,0.00
2014-7-31,79.0,63.2,56.0,65.0,56.5,55.0,97,82,45,0.00,40.00,11,4,18,0.00
2014-8-1,82.0,65.8,56.0,68.0,60.9,55.0,96,87,44,0.00,40.00,9,2,12,0.00
2014-8-2,83.0,66.6,52.0,67.0,58.5,51.0,97,80,37,0.00,40.00,15,2,19,0.00
2014-8-3,82.0,69.4,58.0,67.0,62.0,57.0,97,80,52,0.00,40.00,17,4,32,0.00
2014-8-4,70.0,64.2,59.0,69.0,62.9,58.0,96,95,92,0.00,40.00,9,2,17,0.00
2014-8-5,80.0,69.2,59.0,64.0,58.8,55.0,96,73,42,0.00,40.00,6,3,9,0.00
2014-8-6,83.0,69.5,54.0,65.0,56.2,51.0,97,69,34,0.00,40.00,3,1,7,0.00
2014-8-7,81.0,70.0,57.0,64.0,56.9,51.0,97,68,36,0.00,40.00,7,3,13,0.00
2014-8-8,83.0,69.0,53.0,64.0,54.8,51.0,96,67,33,0.00,40.00,7,3,12,0.00
2014-8-9,81.0,70.5,54.0,65.0,56.5,52.0,96,66,37,0.00,40.00,11,3,16,0.00
2014-8-10,81.0,66.2,52.0,67.0,57.5,51.0,97,78,40,0.00,40.00,6,2,8,0.00
2014-8-11,80.0,64.5,60.0,70.0,61.5,58.0,96,91,49,0.00,40.00,17,5,30,0.00
2014-8-12,74.0,63.4,54.0,58.0,50.8,44.0,95,68,37,0.00,40.00,12,8,24,0.00
2014-8-13,78.0,63.6,53.0,61.0,53.4,47.0,96,74,38,0.00,40.00,10,4,20,0.00
2014-8-14,73.0,58.0,45.0,51.0,44.6,38.0,96,69,30,0.00,40.00,6,2,10,0.00
2014-8-15,80.0,62.7,45.0,65.0,54.1,44.0,97,78,46,0.00,40.00,7,2,12,0.00
2014-8-16,83.0,68.8,60.0,69.0,63.0,58.0,96,82,54,0.00,40.00,9,5,18,0.00
2014-8-17,74.0,66.2,60.0,67.0,60.2,57.0,94,82,61,0.00,40.00,10,6,18,0.00
2014-8-18,78.0,63.7,60.0,72.0,62.1,59.0,97,95,84,0.00,40.00,7,4,16,0.00
2014-8-19,76.0,67.7,62.0,67.0,63.3,60.0,97,87,63,0.00,40.00,11,4,18,0.00
2014-8-20,79.0,65.9,57.0,65.0,60.7,56.0,97,85,56,0.00,40.00,4,2,9,0.00
2014-8-21,81.0,69.9,62.0,73.0,66.9,61.0,96,91,60,0.00,40.00,7,4,15,0.00
2014-8-22,86.0,76.2,71.0,77.0,73.1,70.0,96,90,67,0.00,40.00,7,3,11,0.00
2014-8-23,74.0,72.8,72.0,73.0,71.6,70.0,96,96,95,0.00,40.00,8,5,12,0.00
2014-8-24,82.0,74.7,68.0,75.0,71.1,67.0,95,89,71,0.00,40.00,7,5,18,0.00
2014-8-25,86.0,75.3,67.0,75.0,70.1,65.0,96,86,58,0.00,40.00,9,4,29,0.00
2014-8-26,72.0,64.3,58.0,65.0,56.6,51.0,96,78,49,0.00,40.00,12,3,20,0.00
2014-8-27,75.0,65.8,56.0,61.0,55.4,51.0,96,73,48,0.00,40.00,7,2,11,0.00
2014-8-28,72.0,62.3,52.0,65.0,58.6,51.0,97,88,65,0.00,40.00,6,3,17,0.00
2014-8-29,84.0,68.6,56.0,73.0,65.3,55.0,97,90,70,0.00,40.00,6,3,17,0.00
2014-8-30,77.0,67.8,62.0,69.0,64.3,60.0,97,88,65,0.00,40.00,6,4,15,0.00
2014-8-31,83.0,69.9,56.0,70.0,64.3,55.0,96,84,62,0.00,40.00,9,3,17,0.00
2014-9-1,74.0,67.5,57.0,70.0,62.1,56.0,96,84,58,0.00,40.00,11,5,22,0.00
2014-9-2,76.0,62.9,53.0,63.0,55.7,52.0,97,81,47,0.00,40.00,11,3,18,0.00
2014-9-3,81.0,68.0,51.0,67.0,57.7,50.0,97,74,44,0.00,40.00,9,4,16,0.00
2014-9-4,77.0,70.9,64.0,72.0,67.8,63.0,96,91,73,0.00,40.00,19,6,30,0.00
2014-9-5,75.0,64.1,52.0,74.0,59.5,51.0,96,86,67,0.00,40.00,9,5,22,0.00
2014-9-6,73.0,57.5,46.0,56.0,48.1,43.0,97,75,36,0.00,40.00,9,4,19,0.00
2014-9-7,77.0,61.0,46.0,60.0,50.4,45.0,97,74,36,0.00,40.00,7,2,14,0.00
2014-9-8,71.0,61.0,49.0,62.0,52.4,49.0,97,77,45,0.00,40.00,12,4,19,0.00
2014-9-9,80.0,67.9,58.0,65.0,60.3,56.0,96,79,47,0.00,40.00,7,3,13,0.00
2014-9-10,68.0,59.3,45.0,67.0,56.9,39.0,96,92,80,0.00,40.00,16,7,30,0.00
2014-9-11,55.0,47.9,40.0,42.0,38.4,36.0,93,72,51,0.00,40.00,12,7,20,0.00
2014-9-12,48.0,42.7,38.0,45.0,40.3,36.0,96,92,66,0.00,40.00,4,2,7,0.00
2014-9-13,59.0,45.4,33.0,44.0,34.9,28.0,98,71,33,0.00,40.00,6,2,11,0.00
2014-9-14,66.0,53.2,41.0,51.0,43.7,40.0,96,73,47,0.00,40.00,17,5,25,0.00
2014-9-15,62.0,51.8,40.0,52.0,45.7,36.0,96,83,43,0.00,40.00,8,2,16,0.00
2014-9-16,66.0,50.0,34.0,46.0,38.6,33.0,98,71,36,0.00,40.00,9,3,14,0.00
2014-9-17,71.0,52.1,37.0,55.0,43.9,36.0,98,79,40,0.00,40.00,7,2,13,0.00
2014-9-18,61.0,50.4,45.0,51.0,47.6,44.0,96,90,69,0.00,40.00,9,4,14,0.00
2014-9-19,54.0,49.7,46.0,53.0,48.9,45.0,97,97,96,0.00,40.00,4,2,13,0.00
2014-9-23,75.0,64.7,49.0,52.0,48.8,46.0,96,61,36,0.00,40.00,7,3,15,0.00
2014-9-24,67.0,56.0,47.0,58.0,50.8,46.0,97,85,57,0.00,40.00,6,2,10,0.00
2014-9-25,78.0,60.7,51.0,60.0,53.6,46.0,96,82,34,0.00,40.00,5,2,14,0.00
2014-9-26,78.0,60.9,45.0,59.0,50.3,45.0,98,75,35,0.00,40.00,6,2,12,0.00
2014-9-27,81.0,64.6,53.0,60.0,53.6,52.0,97,72,37,0.00,40.00,5,2,11,0.00
2014-9-28,81.0,64.1,50.0,62.0,54.4,49.0,97,77,36,0.00,40.00,9,2,13,0.00
2014-9-29,60.0,53.1,45.0,59.0,49.8,41.0,97,89,68,0.00,40.00,12,6,19,0.00
2014-9-30,55.0,45.7,40.0,44.0,40.6,38.0,92,83,58,0.00,40.00,11,6,18,0.00
2014-10-1,60.0,53.4,46.0,56.0,49.7,44.0,97,88,71,0.00,40.00,8,5,16,0.00
2014-10-2,69.0,61.3,53.0,63.0,58.0,52.0,97,89,70,0.00,40.00,11,3,21,0.00
2014-10-3,56.0,47.2,38.0,55.0,44.0,33.0,97,89,70,0.00,40.00,18,9,34,0.00
2014-10-4,47.0,40.4,33.0,40.0,32.9,29.0,98,76,53,0.00,40.00,15,8,24,0.00
2014-10-5,47.0,39.9,30.0,35.0,29.5,26.0,96,69,43,0.00,40.00,11,6,18,0.00
2014-10-6,55.0,41.4,30.0,40.0,30.9,21.0,98,73,28,0.00,40.00,15,5,24,0.00
2014-10-7,60.0,50.7,38.0,42.0,34.5,29.0,96,57,34,0.00,40.00,15,6,24,0.00
2014-10-8,56.0,42.5,31.0,36.0,29.5,23.0,98,67,28,0.00,40.00,16,5,31,0.00
2014-10-9,56.0,41.5,27.0,33.0,29.8,27.0,96,67,35,0.00,40.00,9,4,17,0.00
2014-10-10,58.0,41.2,28.0,35.0,29.1,25.0,99,70,30,0.00,40.00,6,2,13,0.00
2014-10-11,56.0,40.9,27.0,41.0,28.8,24.0,98,69,29,0.00,40.00,7,2,12,0.00
2014-10-12,60.0,46.6,29.0,47.0,35.0,29.0,99,70,34,0.00,40.00,11,4,21,0.00
2014-10-13,54.0,51.1,48.0,53.0,50.2,47.0,98,97,95,0.00,40.00,12,4,26,0.00
2014-10-14,53.0,51.0,48.0,51.0,47.3,43.0,97,88,70,0.00,40.00,26,14,43,0.00
2014-10-15,59.0,52.2,48.0,50.0,44.1,39.0,95,75,67,0.00,40.00,14,8,26,0.00
2014-10-16,66.0,49.3,36.0,51.0,43.3,35.0,98,84,44,0.00,40.00,6,2,11,0.00
2014-10-17,54.0,49.3,42.0,51.0,44.7,39.0,97,85,68,0.00,40.00,12,6,24,0.00
2014-10-18,53.0,43.4,32.0,42.0,33.5,26.0,96,70,36,0.00,40.00,11,6,29,0.00
2014-10-19,58.0,42.5,28.0,43.0,36.1,27.0,98,82,52,0.00,40.00,13,5,24,0.00
2014-10-20,56.0,50.1,44.0,46.0,41.3,37.0,98,74,49,0.00,40.00,10,5,18,0.00
2014-10-21,54.0,43.5,33.0,44.0,35.9,32.0,97,78,45,0.00,40.00,11,4,16,0.00
2014-10-22,58.0,42.1,29.0,43.0,32.8,29.0,99,75,35,0.00,40.00,10,3,16,0.00
2014-10-23,48.0,44.8,41.0,47.0,43.0,37.0,97,94,80,0.00,40.00,7,4,12,0.00
2014-10-24,60.0,51.8,46.0,56.0,49.4,45.0,97,92,73,0.00,40.00,7,4,11,0.00
2014-10-25,67.0,56.7,45.0,58.0,36.6,21.0,96,56,22,0.00,40.00,14,6,29,0.00
2014-11-1,-200.0,0.0,200.0,-99.9,0.0,200.0,77,77,77,0.00,40.00,1,1,2,0.00
2014-11-3,57.0,56.8,56.0,54.0,51.8,51.0,92,84,82,0.00,40.00,2,2,3,0.00
2014-11-8,-200.0,0.0,200.0,-99.9,0.0,200.0,0,0,100,0.00,40.00,4,4,7,0.00
2014-11-12,41.0,39.4,38.0,37.0,35.5,35.0,92,86,77,0.00,40.00,11,7,18,0.00
2014-11-13,42.0,40.3,37.0,39.0,36.4,32.0,96,87,68,0.00,40.00,9,5,17,0.00
2014-11-14,42.0,39.7,36.0,37.0,32.8,26.0,94,77,54,0.00,40.00,9,4,12,0.00
2014-11-15,41.0,37.5,35.0,39.0,35.2,33.0,96,90,77,0.00,40.00,4,2,7,0.00
2014-11-16,42.0,40.0,36.0,40.0,35.8,27.0,97,86,67,0.00,40.00,12,6,19,0.00
2014-11-17,37.0,36.5,36.0,35.0,31.7,27.0,93,83,67,0.00,40.00,11,7,23,0.00
2014-11-18,38.0,37.2,36.0,32.0,29.1,26.0,84,73,61,0.00,40.00,14,8,21,0.00
2014-11-19,41.0,39.5,38.0,38.0,34.5,29.0,94,82,63,0.00,40.00,13,7,24,0.00
2014-11-20,40.0,37.6,33.0,37.0,26.6,18.0,91,66,44,0.00,40.00,13,7,22,0.00
2014-11-21,45.0,38.5,32.0,32.0,23.7,15.0,88,60,31,0.00,40.00,12,5,19,0.00
2014-11-22,50.0,46.3,45.0,49.0,43.7,30.0,98,89,55,0.00,40.00,10,5,17,0.00
2014-11-23,56.0,54.3,50.0,56.0,53.7,49.0,98,98,98,0.00,40.00,9,4,14,0.00